Flag for Burundi Weather past 2 weeks in Gitega, Burundi

Now
68 °F

Partly cloudy.


Feels Like: 68 °F
Forecast: 61 / 78 °F
Wind: No wind

Location: Kigali Airport

Current Time: Sep 2, 2014 at 12:00:58 AM

Latest Report: Sep 1, 2014 at 11:30 PM


Visibility: N/A

Pressure: 30.12 "Hg

Humidity: 88%

Dew point: 64 °F

Location of GitegaLocation

Historic Weather in Gitega — Graph

°F

Gitega temperature yesterday

Maximum temperature yesterday: 77 °F (at 11:30 AM)
Minimum temperature yesterday: 64 °F (at 2:30 AM)
Average temperature yesterday: 71 °F

Past Weeks' High & Low Weather Summary

 TemperatureHumidityPressure
High88 °F (Aug 23, 3:00 PM)100% (Aug 24, 1:30 AM)30.24 "Hg (Aug 24, 1:30 AM)
Low61 °F (Aug 29, 4:00 AM)29% (Aug 23, 4:00 PM)29.95 "Hg (Aug 23, 4:00 PM)
Average71 °F73%30.12 "Hg
* Reported Aug 17 10:00 PM — Sep 1 10:30 PM, Gitega, Weather by CustomWeather, © 2014

Note: Actual official high and low records may vary slightly from our data, if they occured in-between our weather recording intervals... More about our weather records

Advertising

Gitega weather history for previous 24 hours

 ConditionsComfort  
Time TempWeatherWind HumidityBarometerVisibility
10:30 PM
Sep 1
68 °FPartly cloudy.3 mph83%30.15 "HgN/A
10:00 PM68 °FPartly cloudy.5 mph83%30.15 "HgN/A
9:30 PM68 °FPartly cloudy.No wind83%30.15 "HgN/A
9:00 PM70 °FPartly cloudy.3 mph78%30.12 "HgN/A
8:00 PM72 °FPartly cloudy.No wind69%30.12 "HgN/A
7:30 PM72 °FPartly cloudy.No wind69%30.09 "HgN/A
7:00 PM73 °FPartly cloudy.No wind65%30.09 "HgN/A
6:30 PM73 °FPartly cloudy.3 mph61%30.09 "HgN/A
6:00 PM75 °FBroken clouds.7 mph61%30.07 "HgN/A
5:30 PM75 °FPartly sunny.7 mph57%30.07 "HgN/A
5:00 PM75 °FPartly sunny.7 mph57%30.07 "HgN/A
4:30 PM77 °FPartly sunny.7 mph54%30.07 "HgN/A
4:00 PM77 °FPartly sunny.7 mph54%30.07 "HgN/A
2:30 PM75 °FPartly sunny.9 mph57%30.07 "HgN/A
2:00 PM75 °FPartly sunny.9 mph57%30.09 "HgN/A
1:30 PM75 °FPartly sunny.7 mph57%30.09 "HgN/A
1:00 PM73 °FPartly sunny.6 mph69%30.12 "HgN/A
12:30 PM75 °FPartly sunny.10 mph69%30.12 "HgN/A
12:00 PM77 °FPartly sunny.12 mph57%30.15 "HgN/A
11:30 AM77 °FPartly sunny.10 mph61%30.15 "HgN/A
11:00 AM75 °FPartly sunny.9 mph65%30.18 "HgN/A
10:30 AM75 °FScattered clouds.8 mph65%30.18 "HgN/A
10:00 AM73 °FScattered clouds.3 mph74%30.18 "HgN/A
9:30 AM72 °FPartly sunny.No wind78%30.21 "HgN/A
9:00 AM70 °FBroken clouds.No wind83%30.18 "HgN/A
6:00 AM64 °FBroken clouds.No wind100%30.12 "HgN/A
5:30 AM64 °FPassing clouds.3 mph100%30.12 "HgN/A
5:00 AM64 °FPassing clouds.5 mph100%30.09 "HgN/A
4:00 AM64 °FPassing clouds.3 mph100%30.09 "HgN/A
3:00 AM64 °FPassing clouds.No wind100%30.09 "HgN/A
2:30 AM64 °FPassing clouds.6 mph94%30.09 "HgN/A
2:00 AM66 °FPassing clouds.5 mph88%30.09 "HgN/A
1:00 AM66 °FPassing clouds.3 mph88%30.12 "HgN/A
12:00 AM66 °FPassing clouds.3 mph94%30.15 "HgN/A
Weather by CustomWeather, © 2014

See weather overviewHow to use our weather pages